Location: Unspecified
(54.1780°N, 0.0000°E)
Time: 04:25:57
(UTC+00:00)

Vanguard 2 - Pass Details

Date: 18 June 2019
Orbit: 553 x 2938 km, 32.9° (Epoch: 18 July)

Event Time Altitude Azimuth Distance (km) Brightness Sun altitude
Rises 10:55:51 0° 230° (SW) 4,082 11.3 56.9°
Reaches altitude 10° 10:59:03 10° 215° (SW) 3,454 11.2 57.1°
Maximum altitude 11:05:38 22° 168° (SSE) 3,237 11.7 57.5°
Drops below altitude 10° 11:14:39 10° 125° (SE) 4,889 12.2 58.0°
Sets 11:20:23 0° 114° (ESE) 6,279 12.5 58.3°
